Weather History for KDQH - November, 2013

Change the Weather History Date:

Wednesday, November 20, 2013

  Actual Average Record
Temperature  
Mean Temperature 55 °F -  
Max Temperature 59 °F 70 °F 80 °F (1948)
Min Temperature 51 °F 43 °F 28 °F (1951)
Degree Days  
Heating Degree Days 10    
Growing Degree Days 5 (Base 50)    
Moisture  
Dew Point 43 °F    
Average Humidity 63    
Maximum Humidity 88    
Minimum Humidity 51    
Precipitation  
Precipitation 0.00 in - - ()
Sea Level Pressure  
Sea Level Pressure 30.20 in    
Wind  
Wind Speed 10 mph (ENE)    
Max Wind Speed 14 mph    
Max Gust Speed 21 mph    
Visibility 10 miles    
Events      
Averages and records for this station are not official NWS values.
T = Trace of Precipitation, MM = Missing Value Source: NWS Daily Summary

Daily Weather History Graph

Daily Weather History Graph

Search for Another Location

Airport or City:

Trip Planner

Search our weather history database for the weather conditions in past years. The results will help you decide how hot, cold, wet, or windy it might be!

Date:

Astronomy

Nov. 20, 2013 Rise Set
Actual Time 7:03 AM EST 5:30 PM EST
Civil Twilight 6:37 AM EST 5:56 PM EST
Nautical Twilight 6:08 AM EST 6:25 PM EST
Astronomical Twilight 5:39 AM EST 6:54 PM EST
Moon 8:12 PM EST (11/20) 9:27 AM EST (11/20)
Length of Visible Light 11h 18m
Length of Day
10h 26m
Waning Gibbous, 91% of the Moon is Illuminated
Nov 20
Waning Gibbous
Nov 25
Last Quarter
Dec 2
New
Dec 9
First Quarter
Dec 17
Full

Hourly Weather History & Observations

Time (EST) Temp. Dew Point Humidity Pressure Visibility Wind Dir Wind Speed Gust Speed Precip Events Conditions
12:15 AM 53.6 °F 37.4 °F 54% 30.14 in 10.0 mi East 6.9 mph - N/A   Mostly Cloudy
12:35 AM 53.6 °F 37.4 °F 54% 30.13 in 10.0 mi East 6.9 mph - N/A   Overcast
12:55 AM 53.6 °F 37.4 °F 54% 30.13 in 10.0 mi East 8.1 mph - N/A   Overcast
1:15 AM 53.6 °F 37.4 °F 54% 30.13 in 10.0 mi East 11.5 mph - N/A   Overcast
1:35 AM 53.6 °F 35.6 °F 51% 30.13 in 10.0 mi ENE 8.1 mph 16.1 mph N/A   Overcast
1:55 AM 53.6 °F 35.6 °F 51% 30.13 in 10.0 mi ENE 8.1 mph 16.1 mph N/A   Overcast
2:15 AM 53.6 °F 35.6 °F 51% 30.13 in 10.0 mi ENE 6.9 mph - N/A   Overcast
2:35 AM 53.6 °F 35.6 °F 51% 30.14 in 10.0 mi NE 9.2 mph - N/A   Overcast
2:55 AM 53.6 °F 35.6 °F 51% 30.13 in 10.0 mi ENE 9.2 mph - N/A   Overcast
3:15 AM 53.6 °F 35.6 °F 51% 30.13 in 10.0 mi ENE 9.2 mph - N/A   Mostly Cloudy
3:35 AM 53.6 °F 35.6 °F 51% 30.14 in 10.0 mi ENE 11.5 mph 16.1 mph N/A   Mostly Cloudy
3:55 AM 53.6 °F 35.6 °F 51% 30.13 in 10.0 mi ENE 11.5 mph - N/A   Mostly Cloudy
4:15 AM 51.8 °F 35.6 °F 54% 30.14 in 10.0 mi ENE 9.2 mph - N/A   Scattered Clouds
4:35 AM 51.8 °F 35.6 °F 54% 30.14 in 10.0 mi ENE 8.1 mph - N/A   Mostly Cloudy
4:55 AM 51.8 °F 37.4 °F 58% 30.15 in 10.0 mi NE 10.4 mph - N/A   Overcast
5:15 AM 51.8 °F 37.4 °F 58% 30.15 in 10.0 mi NE 9.2 mph - N/A   Overcast
5:35 AM 51.8 °F 37.4 °F 58% 30.15 in 10.0 mi NE 12.7 mph - N/A   Overcast
5:55 AM 51.8 °F 37.4 °F 58% 30.15 in 10.0 mi ENE 10.4 mph - N/A   Overcast
6:15 AM 51.8 °F 37.4 °F 58% 30.15 in 10.0 mi NE 9.2 mph - N/A   Overcast
6:35 AM 51.8 °F 39.2 °F 62% 30.16 in 10.0 mi ENE 9.2 mph - N/A   Overcast
6:55 AM 51.8 °F 39.2 °F 62% 30.17 in 10.0 mi ENE 10.4 mph - N/A   Overcast
7:15 AM 51.8 °F 41.0 °F 67% 30.18 in 10.0 mi ENE 10.4 mph - N/A   Overcast
7:35 AM 51.8 °F 41.0 °F 67% 30.18 in 10.0 mi NE 9.2 mph - N/A   Mostly Cloudy
7:55 AM 51.8 °F 41.0 °F 67% 30.19 in 10.0 mi ENE 8.1 mph - N/A   Mostly Cloudy
8:15 AM 53.6 °F 41.0 °F 62% 30.20 in 10.0 mi NE 11.5 mph - N/A   Overcast
8:35 AM 53.6 °F 42.8 °F 67% 30.21 in 10.0 mi ENE 12.7 mph 16.1 mph N/A   Scattered Clouds
8:55 AM 53.6 °F 42.8 °F 67% 30.21 in 10.0 mi ENE 11.5 mph 19.6 mph N/A   Mostly Cloudy
9:15 AM 55.4 °F 42.8 °F 63% 30.22 in 10.0 mi ENE 13.8 mph 18.4 mph N/A   Scattered Clouds
9:35 AM 55.4 °F 44.6 °F 67% 30.22 in 10.0 mi ENE 12.7 mph 19.6 mph N/A   Mostly Cloudy
9:55 AM 55.4 °F 44.6 °F 67% 30.23 in 10.0 mi East 12.7 mph 20.7 mph N/A   Overcast
10:15 AM 57.2 °F 44.6 °F 63% 30.23 in 10.0 mi ENE 10.4 mph - N/A   Overcast
10:35 AM 57.2 °F 46.4 °F 67% 30.23 in 10.0 mi ENE 11.5 mph 16.1 mph N/A   Overcast
10:55 AM 59.0 °F 46.4 °F 63% 30.23 in 10.0 mi ENE 12.7 mph 17.3 mph N/A   Overcast
11:15 AM 57.2 °F 46.4 °F 67% 30.23 in 10.0 mi ENE 9.2 mph - N/A   Overcast
11:35 AM 57.2 °F 46.4 °F 67% 30.23 in 10.0 mi ENE 10.4 mph 17.3 mph N/A   Overcast
11:55 AM 59.0 °F 46.4 °F 63% 30.23 in 10.0 mi ENE 10.4 mph - N/A   Overcast
12:15 PM 59.0 °F 46.4 °F 63% 30.22 in 10.0 mi ENE 10.4 mph - N/A   Overcast
12:35 PM 59.0 °F 46.4 °F 63% 30.22 in 10.0 mi ENE 9.2 mph - N/A   Overcast
12:55 PM 59.0 °F 46.4 °F 63% 30.21 in 10.0 mi NE 10.4 mph - N/A   Overcast
1:15 PM 59.0 °F 46.4 °F 63% 30.20 in 10.0 mi NE 12.7 mph 16.1 mph N/A   Overcast
1:35 PM 59.0 °F 46.4 °F 63% 30.20 in 10.0 mi NE 12.7 mph 18.4 mph N/A   Overcast
1:55 PM 59.0 °F 44.6 °F 59% 30.20 in 10.0 mi NE 11.5 mph - N/A   Overcast
2:15 PM 59.0 °F 46.4 °F 63% 30.19 in 10.0 mi NE 12.7 mph 17.3 mph N/A   Overcast
2:35 PM 59.0 °F 46.4 °F 63% 30.19 in 10.0 mi NE 12.7 mph - N/A   Overcast
2:55 PM 59.0 °F 44.6 °F 59% 30.19 in 10.0 mi NE 12.7 mph 16.1 mph N/A   Overcast
3:15 PM 59.0 °F 44.6 °F 59% 30.20 in 10.0 mi ENE 10.4 mph - N/A   Overcast
3:35 PM 59.0 °F 44.6 °F 59% 30.20 in 10.0 mi NE 13.8 mph - N/A   Overcast
3:55 PM 59.0 °F 44.6 °F 59% 30.20 in 10.0 mi ENE 11.5 mph - N/A   Overcast
4:15 PM 59.0 °F 44.6 °F 59% 30.20 in 10.0 mi ENE 11.5 mph 17.3 mph N/A   Overcast
4:35 PM 59.0 °F 44.6 °F 59% 30.20 in 10.0 mi NE 10.4 mph - N/A   Overcast
4:55 PM 57.2 °F 44.6 °F 63% 30.21 in 10.0 mi ENE 8.1 mph - N/A   Overcast
5:15 PM 57.2 °F 44.6 °F 63% 30.22 in 10.0 mi ENE 6.9 mph - N/A   Overcast
5:35 PM 57.2 °F 44.6 °F 63% 30.22 in 10.0 mi NE 8.1 mph - N/A   Overcast
5:55 PM 57.2 °F 44.6 °F 63% 30.23 in 10.0 mi ENE 12.7 mph - N/A   Overcast
6:15 PM 57.2 °F 44.6 °F 63% 30.23 in 10.0 mi ENE 11.5 mph - N/A   Overcast
6:35 PM 57.2 °F 44.6 °F 63% 30.24 in 10.0 mi ENE 9.2 mph - N/A   Overcast
6:55 PM 57.2 °F 44.6 °F 63% 30.25 in 10.0 mi ENE 8.1 mph 17.3 mph N/A   Overcast
7:15 PM 57.2 °F 44.6 °F 63% 30.25 in 10.0 mi ENE 8.1 mph - N/A   Overcast
7:35 PM 55.4 °F 44.6 °F 67% 30.25 in 10.0 mi ENE 10.4 mph - N/A   Overcast
7:55 PM 55.4 °F 44.6 °F 67% 30.26 in 10.0 mi ENE 11.5 mph - N/A   Overcast
8:15 PM 55.4 °F 44.6 °F 67% 30.27 in 10.0 mi ENE 8.1 mph - N/A   Overcast
8:35 PM 55.4 °F 44.6 °F 67% 30.27 in 10.0 mi ENE 9.2 mph - N/A   Overcast
8:55 PM 55.4 °F 46.4 °F 72% 30.27 in 10.0 mi ENE 9.2 mph 16.1 mph N/A   Overcast
9:15 PM 55.4 °F 46.4 °F 72% 30.27 in 10.0 mi ENE 10.4 mph 16.1 mph N/A   Overcast
9:35 PM 55.4 °F 46.4 °F 72% 30.28 in 10.0 mi ENE 9.2 mph 17.3 mph N/A   Overcast
9:55 PM 55.4 °F 46.4 °F 72% 30.28 in 10.0 mi East 11.5 mph 16.1 mph N/A   Overcast
10:15 PM 55.4 °F 46.4 °F 72% 30.28 in 10.0 mi ENE 8.1 mph - N/A   Overcast
10:35 PM 55.4 °F 46.4 °F 72% 30.28 in 10.0 mi ENE 10.4 mph - N/A   Overcast
10:55 PM 55.4 °F 46.4 °F 72% 30.28 in 10.0 mi ENE 6.9 mph - N/A   Overcast
11:15 PM 55.4 °F 48.2 °F 77% 30.28 in 10.0 mi ENE 9.2 mph - N/A   Overcast
11:35 PM 53.6 °F 50.0 °F 88% 30.28 in 10.0 mi ENE 10.4 mph - N/A   Light Drizzle
11:55 PM 53.6 °F 50.0 °F 88% 30.27 in 10.0 mi ENE 9.2 mph - N/A   Overcast